Location: Wildlife_Club
(35.6000°N, 81.4330°W)
Time: 12:06:16
(UTC-04:00)

A-11 Canister half - Pass Details

Date: 04 July 2019
Orbit: 1515 x 1685 km, 47.2° (Epoch: 15 July)

Event Time Altitude Azimuth Distance (km) Brightness Sun altitude
Rises 08:45:12 0° 241° (WSW) 4,929 11.1 27.9°
Reaches altitude 10° 08:48:24 10° 243° (WSW) 3,943 10.7 28.5°
Maximum altitude 08:58:34 75° 329° (NNW) 1,719 9.7 30.5°
Drops below altitude 10° 09:08:35 10° 55° (NE) 3,878 12.2 32.6°
Sets 09:11:42 0° 57° (ENE) 4,845 12.5 33.2°
